This demonstration page uses our WeatherBlox Daily Observations layout. Learn more.

Left ArrowRight Arrow

39.92423, -83.80882

Hourly Observations for May 27, 2022

Temp ( °F °C ) Dew Point ( °F °C ) Humidity (%) Winds ( mph kmh ) Pressure ( in mb ) Visibility ( mi km ) Precip ( " mm )
12:23 am 00:23 Cloudy 63 17 N/A N/A SSE 8 13 29.81 1010 10 16 0.00 0.00
12:56 am 00:56 Mostly Cloudy 63 17 N/A N/A SSE 10 17 29.82 1010 10 16 0.00 0.00
1:04 am 01:04 Partly Cloudy 63 17 N/A N/A SSE 9 15 29.80 1009 10 16 0.00 0.00
1:23 am 01:23 Mostly Cloudy 63 17 N/A N/A SE 8 13 29.80 1009 10 16 0.00 0.00
1:49 am 01:49 Cloudy N/A N/A N/A SSE 8 13 N/A 10 16 0.00 0.00
1:56 am 01:56 Cloudy N/A N/A N/A SSE 8 13 N/A 10 16 0.00 0.00
2:03 am 02:03 Cloudy with Light Rain N/A N/A N/A S 7 11 N/A 10 16 0.00 0.00
2:18 am 02:18 Cloudy with Light Rain N/A N/A N/A S 7 11 N/A 10 16 0.00 0.00
2:47 am 02:47 Mostly Cloudy 63 17 N/A N/A SSW 9 15 29.78 1009 10 16 0.00 0.00
2:56 am 02:56 Mostly Cloudy 63 17 N/A N/A SSW 10 17 29.79 1009 10 16 0.00 0.00
3:09 am 03:09 Partly Cloudy 63 17 N/A N/A SW 10 17 29.78 1009 10 16 0.00 0.00
3:17 am 03:17 Mostly Cloudy 63 17 N/A N/A SW 10 17 29.78 1009 10 16 0.00 0.00
3:53 am 03:53 Partly Cloudy 61 16 N/A N/A SW 7 11 29.79 1009 10 16 0.00 0.00
3:56 am 03:56 Partly Cloudy 61 16 N/A N/A SW 7 11 29.79 1009 10 16 0.00 0.00
4:09 am 04:09 Mostly Cloudy 61 16 N/A N/A SW 5 7 29.78 1008 10 16 0.00 0.00
4:19 am 04:19 Partly Cloudy 61 16 N/A N/A SSW 5 7 29.78 1008 10 16 0.00 0.00
4:56 am 04:56 Clear N/A N/A N/A S 7 11 N/A 10 16 0.00 0.00
5:15 am 05:15 Partly Cloudy N/A N/A N/A SSE 7 11 N/A 10 16 0.00 0.00
5:28 am 05:28 Mostly Cloudy N/A N/A N/A SSE 6 9 N/A 10 16 0.00 0.00
5:48 am 05:48 Partly Cloudy N/A N/A N/A S 5 7 N/A 9 14 0.00 0.00
5:56 am 05:56 Mostly Clear N/A N/A N/A Calm N/A 9 14 0.00 0.00
6:56 am 06:56 Mostly Sunny N/A N/A N/A S 8 13 N/A 10 16 0.00 0.00
7:56 am 07:56 Partly Cloudy 61 16 N/A N/A S 7 11 29.80 1009 10 16 0.00 0.00
8:56 am 08:56 Cloudy with Light Rain 63 17 N/A N/A S 6 9 29.80 1009 10 16 0.00 0.00
9:24 am 09:24 Cloudy 63 17 N/A N/A SSE 8 13 29.79 1009 10 16 0.00 0.00
9:56 am 09:56 Cloudy 64 18 N/A N/A S 10 17 29.78 1008 10 16 0.00 0.00
10:36 am 10:36 Cloudy 66 19 64 18 94 94 S 10 17 29.76 1008 10 16 0.00 0.00
10:56 am 10:56 Cloudy 65 18.3 62 16.7 90 90 S 12 19 29.77 1008 10 16 0.00 0.00
11:03 am 11:03 Mostly Cloudy 66 19 61 16 83 83 SSW 9 15 29.76 1008 10 16 0.00 0.00
11:10 am 11:10 Mostly Cloudy 64 18 61 16 88 88 SSW 9 15 29.76 1008 10 16 0.00 0.00
11:56 am 11:56 Cloudy 65 18.3 61 16.1 87 87 SSW 9 15 29.76 1008 10 16 0.00 0.00
12:05 pm 12:05 Cloudy 64 18 63 17 94 94 SSW 8 13 29.75 1007 10 16 0.00 0.00
12:56 pm 12:56 Cloudy 64 17.8 64 17.8 100 100 SW 8 13 29.77 1008 10 16 0.00 0.00
1:56 pm 13:56 Cloudy 64 17.8 58 14.4 81 81 SW 9 15 29.75 1007 10 16 0.00 0.00
2:56 pm 14:56 Mostly Cloudy 66 18.9 57 13.9 73 73 WSW 10 17 29.75 1007 10 16 0.00 0.00
3:56 pm 15:56 Cloudy with Light Rain 65 18.3 61 16.1 87 87 W 12 19 29.75 1007 10 16 0.00 0.00
4:56 pm 16:56 Mostly Cloudy with Light Rain 65 18.3 63 17.2 93 93 WSW 14 22 29.73 1007 10 16 0.00 0.00
5:56 pm 17:56 Mostly Cloudy 65 18.3 59 15 81 81 W 13 20 29.74 1007 10 16 0.00 0.00
6:56 pm 18:56 Cloudy 61 16.1 61 16.1 100 100 W 10 17 29.75 1007 10 16 0.00 0.00
7:56 pm 19:56 Cloudy 61 16.1 61 16.1 100 100 W 9 15 29.78 1008 10 16 0.00 0.00
8:56 pm 20:56 Cloudy 61 16 N/A N/A WSW 9 15 29.79 1009 10 16 0.00 0.00
9:56 pm 21:56 Partly Cloudy 59 15 N/A N/A WSW 8 13 29.80 1009 10 16 0.00 0.00
10:46 pm 22:46 Mostly Cloudy N/A N/A N/A SW 7 11 N/A 10 16 0.00 0.00
10:56 pm 22:56 Mostly Cloudy with Light Rain N/A N/A N/A SW 9 15 N/A 10 16 0.00 0.00
11:37 pm 23:37 Cloudy N/A N/A N/A SW 3 6 N/A 10 16 0.00 0.00
11:46 pm 23:46 Cloudy N/A N/A N/A Calm N/A 10 16 0.00 0.00
11:56 pm 23:56 Cloudy N/A N/A N/A WSW 3 6 N/A 10 16 0.00 0.00

Powered by AerisWeather